Regional Weather Roundup
Issued by NWS

Home | Current Version | Previous Version | Text Only | Print | Product List | Glossary On
Versions: 1 2 3 4 5 6 7 8 9 10 11 12 13 14 15 16 17 18 19 20 21 22 23 24 25 26 27 28 29 30 31 32 33 34 35 36 37 38 39 40 41 42 43 44 45 46 47 48 49 50
000
ASUS43 KMKX 202321
RWRWI

WISCONSIN REGIONAL WEATHER ROUNDUP
NATIONAL WEATHER SERVICE MILWAUKEE/SULLIVAN WI
500 PM CST MON FEB 20 2017

NOTE: "FAIR" INDICATES FEW OR NO CLOUDS BELOW 12,000 FEET WITH NO
SIGNIFICANT WEATHER AND/OR OBSTRUCTIONS TO VISIBILITY.

WIZ001-002-006>008-014>016-023>028-210000-
NORTHWEST WISCONSIN

CITY           SKY/WX    TMP DP  RH WIND       PRES   REMARKS
SUPERIOR ARPT  RAIN      36  36 100 NE3       29.67F
ASHLAND        RAIN      49  47  93 S9G20     29.67F FOG
HAYWARD        RAIN      48  45  89 S14G23    29.68F FOG
SIREN          RAIN      49  48  96 SW8       29.68R
CUMBERLAND     RAIN      45  45 100 S12       29.69S
RICE LAKE      RAIN      48  48  97 CALM      29.71S
CHETEK         RAIN      49  49 100 S12       29.70F
LADYSMITH      RAIN      49  48  96 SE13G21   29.74R
EAU CLAIRE     RAIN      52  51  97 S14       29.71F FOG
MENOMONIE      RAIN      51  51 100 S8        29.72R
NEW RICHMOND   LGT RAIN  50  50 100 S10       29.70S
OSCEOLA        RAIN      51  51 100 S8        29.72R
$$

WIZ003>005-009-010-017-018-210000-
NORTH CENTRAL WISCONSIN

CITY           SKY/WX    TMP DP  RH WIND       PRES   REMARKS
MANITOWISH WTR RAIN      43  43 100 SE13      29.74F
ARBOR VITAE    RAIN      45  44  93 SE13      29.76F
WOODRUFF       RAIN      45  44  93 SE13      29.76F
RHINELANDER    RAIN      46  45  96 SE13G21   29.79F FOG
EAGLE RIVER    RAIN      45  39  81 SE12G17   29.80F
LAND O LAKES   LGT RAIN  44  41  89 SE10G17   29.80F
PHILLIPS       RAIN      46  46 100 SE10G21   29.73R
TOMAHAWK       RAIN      44  43  95 SE10G23   29.78F
MEDFORD        RAIN      45  44  97 SE12G17   29.75F
MERRILL        NOT AVBL
$$

WIZ029-030-035-036-043>047-210000-
CENTRAL WISCONSIN

CITY           SKY/WX    TMP DP  RH WIND       PRES   REMARKS
WAUSAU         LGT RAIN  46  45  96 SE16      29.78F FOG
MOSINEE        LGT RAIN  46  46 100 SE15G21   29.82F
MARSHFIELD     RAIN      49  48  97 S16G24    29.77F VSB 1
STEVENS POINT  RAIN      45  45 100 E9        29.83F
WAUPACA        LGT RAIN  49  45  85 SE7       29.88F
WAUTOMA        RAIN      53  51  93 SE7       29.87F FOG
WISC RAPIDS    LGT RAIN  52  52 100 SE10      29.82F FOG
CAMP DOUGLAS   DRIZZLE   54  54 100 SE8       29.81R
$$

WIZ011>013-019>022-031-037>040-048>050-210000-
NORTHEAST WISCONSIN

CITY           SKY/WX    TMP DP  RH WIND       PRES   REMARKS
ANTIGO         RAIN      42  41  96 SE20      29.85F
SHAWANO        RAIN      50  44  78 S7        29.91R
OCONTO         CLOUDY    48  36  62 SE12      29.92F
STURGEON BAY   CLOUDY    48  35  60 SE17G26   29.95F
GREEN BAY      LGT RAIN  51  41  68 SE25G33   29.92F
MANITOWOC      CLOUDY    47  35  63 MISG      29.97F
APPLETON       CLOUDY    48  39  71 SE14G20   29.89F
CLINTONVILLE   LGT RAIN  48  41  76 SE10      29.89S
OSHKOSH        CLOUDY    52  43  71 SE15      29.88F
$$

WIZ032>034-041-042-053>061-210000-
SOUTHWEST WISCONSIN

CITY           SKY/WX    TMP DP  RH WIND       PRES   REMARKS
LA CROSSE      LGT RAIN  55  52  89 S12       29.77R FOG
SPARTA         LGT RAIN  55  54  95 S20G29    29.78S
VIROQUA        CLOUDY    55  54  97 S18       29.80S
BOSCOBEL       LGT RAIN  58  54  86 VRB7      29.82F FOG
PRAIRIE DU CHI LGT RAIN  55  54  96 SE8       29.81R
PLATTEVILLE    CLOUDY    56  56 100 SE12      29.84F
$$

WIZ056-057-062-063-064-067-068-210000-
SOUTH CENTRAL WISCONSIN

CITY           SKY/WX    TMP DP  RH WIND       PRES   REMARKS
REEDSBURG      RAIN      55  55 100 S7        29.84S
BARABOO/DELLS  RAIN      55  51  89 S8        29.86R
LONE ROCK      LGT RAIN  57  54  89 SE9       29.85S FOG
MINERAL POINT  RAIN      55  55 100 SE10      29.85F
MADISON        LGT RAIN  61  52  72 S14       29.87R
MIDDLETON      CLOUDY    58  55  87 S7        29.88S
WATERTOWN      MOCLDY    56  47  71 SE13      29.89F
MONROE         LGT RAIN  61  52  72 S14       29.86S
JANESVILLE     CLOUDY    64  52  63 SE18      29.88F
$$

WIZ051-052-058>065-066-070>072-210000-
SOUTHEAST WISCONSIN

CITY           SKY/WX    TMP DP  RH WIND       PRES   REMARKS
MILWAUKEE      CLOUDY    57  43  59 S18       29.97S
WAUKESHA       MOCLDY    55  43  62 SE12G23   29.95F
MILWAUKEE/TIMM MOCLDY    55  39  54 SE12      29.97F
RACINE         CLOUDY    54  40  59 S17G25    29.98S
KENOSHA        CLOUDY    57  43  59 SE20G25   29.96F
FOND DU LAC    CLOUDY    53  43  68 SE17      29.90S
SHEBOYGAN      CLOUDY    47  39  74 S8        29.96F
WEST BEND      CLOUDY    52  43  71 SE10      29.94F
JUNEAU         CLOUDY    55  46  71 SE16      29.90F
$$

LSZ147-162-210000-
LAKE SUPERIOR

STATION/POSITION TIME  TEMP    WIND        PRES    WAVE
                       AIR SEA DIR/SP/G            HT/PER
                 (UTC) (F)     (DEG/KT/KT) (MB)    (FT/S)
DEVILS ISLAND    2300   42     110/  9/ 10 1004.8F
PORT WING        2240   37      30/  3/  7 1004.1F
SAXON HARBOR     2230   51     180/  7/ 21 1003.7F
$$

LMZ867-665-643>646-210000-
LAKE MICHIGAN

STATION/POSITION TIME  TEMP    WIND        PRES    WAVE
                       AIR SEA DIR/SP/G            HT/PER
                 (UTC) (F)     (DEG/KT/KT) (MB)    (FT/S)
CHAMBERS ISLAND  2240   48     110/  8/ 14 1014.2F
NORTHPORT PIER   2240   40     150/ 13/ 16 1015.2F
SISTER BAY       2235   47     150/ 15/ 21   N/A
ALGOMA LAKESHORE 2110          150/  7/  8   N/A
KEWAUNEE LAKESHO 2254   40     180/  8/ 10 1013.9F
SHEBOYGAN LAKESH 2300   42     160/ 15/ 16 1015.1F
PORT WASHINGTON  2230   45     170/  3/  5 1015.9F
MILWAUKEE LAKESH 2300   45     150/ 13/ 14   N/A
KENOSHA   LAKESH 2300   44     170/ 14/ 18 1014.9
$$

TC  - TEMPERATURE IN CELSIUS
VSB - VISIBILITY IN STATUTE MILES
WCI - WIND CHILL INDEX
HX  - HEAT INDEX





USA.gov is the U.S. government's official web portal to all federal, state and local government web resources and services.